Skip Navigation Links
NOAA logo - Click to go to the NOAA homepage
NOAA's National Weather Service
Alaska Aviation Weather Unit
  NWS logo - Click to go to the NWS homepage
Left Navbar Graphic     10 AKDT = 18 GMT

   
NOAA is celebrating 200 years of science, service, and stewardship. Visit the NOAA 200th celebration Web site to learn more.
USA.gov is the U.S. Government's official Web portal to all Federal, state and local government Web resources and services.
Facebook
NWS on Facebook

Important Change Regarding the AAWU Web Presence

 

Over the last several months, the AAWU has been working to navigate its webpages to a nationally supported server. Security, as well as other needs, have necessitated the change.  We have been given an extension for the site changeover while we diligently work at addressing feedback received. As of July 14, 2017, aawu.arh.noaa.gov will be discontinued. The new AAWU web address is weather.gov/aawu. It is now live and will run in-parallel with the old site until it is discontinued on July 14, 2017. Please continue to send any feedback or questions regarding the new webpages to nws.ar.aawu.webauthors@noaa.gov.  Thank you for your patience during this time of transition.
AAWU Home :: Display TAF Add Bookmark
METAR PAPN 261256Z AUTO 02004KT 10SM OVC050 04/04 A2971 RMK AO2
 RAB00E23 SLP064 P0000 T00440039=

METAR PAPN 261456Z AUTO 04005KT 10SM OVC042 05/04 A2970 RMK AO2
 SLP058 60000 T00500039 58007=

METAR PAPN 261556Z AUTO 04004KT 10SM OVC044 04/03 A2969 RMK AO2
 SLP057 T00440033=

METAR PAPN 261656Z AUTO 04004KT 10SM OVC070 04/03 A2969 RMK AO2
 SLP056 T00390028=

METAR PAPN 261756Z AUTO 02004KT 10SM OVC075 04/03 A2969 RMK AO2
 SLP057 60000 T00440033 10050 20039 55001=


NOAA's National Weather Service
Alaska Aviation Weather Unit
6930 Sand Lake Road
Anchorage, AK 99502-1845
Disclaimer
Credits
Glossary
Privacy Policy
About Us
Career Opportunities
Contact AAWU Internet Services Site last modified: April, 17th 2012